This demonstration page uses our WeatherBlox Daily Observations layout. Learn more.

Hourly Observations for October 7, 2015

Temp ( °F °C ) Dew Point ( °F °C ) Humidity (%) Winds ( mph kmh ) Pressure ( in mb ) Visibility ( mi km ) Precip ( " mm )
12:15 am 00:15 Cloudy 63 17 55 13 77 77 E 5 7 30.09 1019 10 16.09344 0 0
12:35 am 00:35 Cloudy 63 17 55 13 77 77 E 5 7 30.09 1019 10 16.09344 0 0
12:55 am 00:55 Cloudy 63 17 55 13 77 77 E 3 6 30.09 1019 10 16.09344 0 0
1:15 am 01:15 Cloudy 61 16 55 13 83 83 Calm 30.09 1019 10 16.09344 0 0
1:35 am 01:35 Cloudy 61 16 55 13 83 83 E 3 6 30.09 1019 10 16.09344 0 0
1:55 am 01:55 Cloudy 61 16 55 13 83 83 ESE 5 7 30.09 1019 10 16.09344 0 0
2:15 am 02:15 Cloudy 61 16 55 13 83 83 SE 3 6 30.09 1019 10 16.09344 0 0
2:35 am 02:35 Cloudy 61 16 55 13 83 83 Calm 30.09 1019 10 16.09344 0 0
2:55 am 02:55 Cloudy 61 16 55 13 83 83 Calm 30.09 1019 10 16.09344 0 0
3:15 am 03:15 Cloudy 61 16 55 13 83 83 Calm 30.09 1019 10 16.09344 0 0
3:35 am 03:35 Cloudy 61 16 55 13 83 83 Calm 30.09 1019 10 16.09344 0 0
3:55 am 03:55 Cloudy 61 16 55 13 83 83 Calm 30.09 1019 10 16.09344 0 0
4:15 am 04:15 Cloudy 61 16 55 13 83 83 Calm 30.09 1019 10 16.09344 0 0
4:35 am 04:35 Cloudy 61 16 55 13 83 83 Calm 30.09 1019 10 16.09344 0 0
4:55 am 04:55 Cloudy 61 16 55 13 83 83 Calm 30.09 1019 10 16.09344 0 0
5:15 am 05:15 Cloudy 59 15 55 13 88 88 Calm 30.09 1019 10 16.09344 0 0
5:35 am 05:35 Cloudy 59 15 55 13 88 88 Calm 30.09 1019 10 16.09344 0 0
5:55 am 05:55 Cloudy 59 15 55 13 88 88 Calm 30.09 1019 10 16.09344 0 0
6:15 am 06:15 Cloudy 59 15 55 13 88 88 Calm 30.09 1019 10 16.09344 0 0
6:35 am 06:35 Cloudy 59 15 55 13 88 88 Calm 30.09 1019 10 16.09344 0 0
6:55 am 06:55 Cloudy 59 15 55 13 88 88 Calm 30.09 1019 10 16.09344 0 0
7:15 am 07:15 Cloudy 59 15 55 13 88 88 SE 3 6 30.09 1019 10 16.09344 0 0
7:35 am 07:35 Mostly Cloudy 59 15 55 13 88 88 Calm 30.09 1019 10 16.09344 0 0
7:55 am 07:55 Sunny 57 14 55 13 94 94 Calm 30.09 1019 10 16.09344 0 0
8:15 am 08:15 Sunny 59 15 55 13 88 88 Calm 30.12 1020 10 16.09344 0 0
8:35 am 08:35 Sunny 59 15 55 13 88 88 Calm 30.12 1020 10 16.09344 0 0
8:55 am 08:55 Sunny 61 16 55 13 83 83 S 3 6 30.12 1020 10 16.09344 0 0
9:15 am 09:15 Sunny 63 17 55 13 77 77 S 5 7 30.12 1020 10 16.09344 0 0
9:35 am 09:35 Partly Cloudy 64 18 55 13 73 73 S 5 7 30.09 1019 10 16.09344 0 0
9:55 am 09:55 Cloudy 66 19 54 12 64 64 S 6 9 30.09 1019 10 16.09344 0 0
10:15 am 10:15 Cloudy 66 19 54 12 64 64 S 5 7 30.09 1019 10 16.09344 0 0
10:35 am 10:35 Cloudy 66 19 54 12 64 64 SSW 12 19 30.09 1019 10 16.09344 0 0
10:55 am 10:55 Cloudy 66 19 54 12 64 64 SSW 6 9 30.09 1019 10 16.09344 0 0
11:15 am 11:15 Cloudy 68 20 54 12 60 60 SSW 6 9 30.09 1019 10 16.09344 0 0
11:35 am 11:35 Cloudy 68 20 52 11 56 56 SSW 7 11 30.09 1019 10 16.09344 0 0
11:55 am 11:55 Cloudy 68 20 52 11 56 56 S 7 11 30.09 1019 10 16.09344 0 0
12:15 pm 12:15 Cloudy 68 20 52 11 56 56 S 8 13 30.09 1019 10 16.09344 0 0
12:35 pm 12:35 Cloudy 68 20 52 11 56 56 S 7 11 30.09 1019 10 16.09344 0 0
12:55 pm 12:55 Cloudy 68 20 52 11 56 56 S 7 11 30.09 1019 10 16.09344 0 0
1:15 pm 13:15 Cloudy 70 21 52 11 53 53 S 10 17 30.03 1017 10 16.09344 0 0
1:35 pm 13:35 Mostly Cloudy 72 22 52 11 50 50 S 13 20 30.03 1017 10 16.09344 0 0
1:55 pm 13:55 Partly Cloudy 73 23 52 11 47 47 S 14 22 30.03 1017 10 16.09344 0 0
2:15 pm 14:15 Partly Cloudy 73 23 52 11 47 47 S 14 22 30.03 1017 10 16.09344 0 0
2:35 pm 14:35 Partly Cloudy 75 24 52 11 44 44 S 13 20 30.03 1017 10 16.09344 0 0
2:55 pm 14:55 Mostly Cloudy 75 24 52 11 44 44 S 16 26 30.03 1017 10 16.09344 0 0
3:15 pm 15:15 Mostly Cloudy 75 24 52 11 44 44 S 16 26 29.97 1015 10 16.09344 0 0
3:35 pm 15:35 Partly Cloudy 75 24 52 11 44 44 S 14 22 29.97 1015 10 16.09344 0 0
3:55 pm 15:55 Mostly Cloudy 75 24 52 11 44 44 S 16 26 29.94 1014 10 16.09344 0 0
4:15 pm 16:15 Partly Cloudy 75 24 52 11 44 44 S 15 24 29.94 1014 10 16.09344 0 0
4:35 pm 16:35 Partly Cloudy 73 23 54 12 50 50 S 12 19 29.97 1015 10 16.09344 0 0
4:55 pm 16:55 Sunny 75 24 54 12 47 47 S 13 20 29.91 1013 10 16.09344 0 0
5:15 pm 17:15 Sunny 73 23 54 12 50 50 S 17 28 29.94 1014 10 16.09344 0 0
5:35 pm 17:35 Sunny 73 23 54 12 50 50 S 18 30 29.94 1014 10 16.09344 0 0
5:55 pm 17:55 Sunny 73 23 54 12 50 50 S 16 26 29.94 1014 10 16.09344 0 0
6:15 pm 18:15 Sunny 72 22 54 12 53 53 S 15 24 29.94 1014 10 16.09344 0 0
6:35 pm 18:35 Sunny 72 22 55 13 57 57 S 8 13 29.94 1014 10 16.09344 0 0
6:55 pm 18:55 Sunny 70 21 55 13 60 60 SSE 6 9 29.94 1014 10 16.09344 0 0
7:15 pm 19:15 Clear 68 20 55 13 64 64 SSE 6 9 29.94 1014 10 16.09344 0 0
7:35 pm 19:35 Clear 66 19 55 13 68 68 SSE 10 17 29.97 1015 10 16.09344 0 0
7:55 pm 19:55 Clear 66 19 55 13 68 68 SSE 9 15 29.97 1015 10 16.09344 0 0
8:15 pm 20:15 Clear 64 18 55 13 73 73 S 9 15 30 1016 10 16.09344 0 0
8:35 pm 20:35 Clear 64 18 57 14 78 78 S 7 11 30 1016 10 16.09344 0 0
8:55 pm 20:55 Clear 64 18 57 14 78 78 S 9 15 30 1016 10 16.09344 0 0
9:15 pm 21:15 Clear 63 17 57 14 83 83 S 7 11 30 1016 10 16.09344 0 0
9:35 pm 21:35 Clear 63 17 57 14 83 83 S 9 15 30 1016 10 16.09344 0 0
9:55 pm 21:55 Clear 63 17 57 14 83 83 S 10 17 30 1016 10 16.09344 0 0
10:15 pm 22:15 Clear 63 17 57 14 83 83 S 9 15 30 1016 10 16.09344 0 0
10:35 pm 22:35 Clear 63 17 57 14 83 83 S 9 15 30 1016 10 16.09344 0 0
10:55 pm 22:55 Clear 61 16 57 14 88 88 SSW 9 15 30.03 1017 10 16.09344 0 0
11:15 pm 23:15 Clear 61 16 57 14 88 88 S 9 15 30.03 1017 10 16.09344 0 0
11:35 pm 23:35 Clear 61 16 57 14 88 88 S 8 13 30.03 1017 10 16.09344 0 0
11:55 pm 23:55 Clear 61 16 57 14 88 88 SSW 7 11 30.03 1017 10 16.09344 0 0

Powered by AerisWeather